Location: *
(51.1248°S, 108.4023°W)
Time: 12:32:17
(UTC+00:00)

Cosmos 1656 - Visible Passes

Search period start: 23 October 2021 00:00
Search period end: 02 November 2021 00:00
Orbit: 800 x 847 km, 71.1° (Epoch: 22 October)

Date Brightness Start Highest point End Pass type
(mag) Time Alt. Az. Time Alt. Az. Time Alt. Az.
23 Oct 4.8 10:50:58 10° N 10:56:16 44° ENE 11:01:41 10° SE visible
24 Oct 5.0 10:30:40 10° N 10:35:50 38° ENE 10:41:06 10° SE visible
25 Oct 5.2 10:10:24 10° NNE 10:15:25 34° ENE 10:20:31 10° SE visible
26 Oct 5.3 09:50:11 10° NNE 09:55:00 29° ENE 09:59:54 10° SE visible
27 Oct 5.5 09:30:01 10° NNE 09:34:36 26° ENE 09:39:15 10° SE visible
28 Oct 5.6 09:09:54 10° NNE 09:14:13 23° E 09:18:34 10° SE visible
28 Oct 3.8 10:51:36 10° NW 10:57:17 74° WSW 11:03:04 10° SSE visible
29 Oct 5.7 08:49:53 10° NE 08:53:49 20° E 08:57:51 10° SE visible
29 Oct 3.8 10:31:19 11° NNW 10:36:46 82° WSW 10:42:35 10° SSE visible
30 Oct 5.8 08:30:01 10° NE 08:33:27 17° E 08:37:04 10° ESE visible
30 Oct 3.8 10:11:27 15° NNW 10:16:17 88° ENE 10:22:05 10° SSE visible
31 Oct 5.9 08:10:07 10° NE 08:13:05 15° E 08:16:11 10° ESE visible
31 Oct 3.8 09:51:33 19° NNW 09:55:47 79° ENE 10:01:35 10° SSE visible
01 Nov 6.0 07:50:18 10° ENE 07:52:44 13° E 07:55:09 10° ESE visible
01 Nov 3.9 09:31:36 22° NNW 09:35:18 70° ENE 09:41:04 10° SSE visible
